When you browse on this site, cookies collect data to enhance your experience and personalize the content and advertising you see.
Visit our Privacy Policy to learn more. By continuing to use the site, you agree to this use of cookies and data.
  • In Österreich
  • Länderverzeichnis
  • Für 7 Tage
  • Wassertemperatur
  • Wetterkarte
  • News
  • Widgets
  • user-avatar
    Anmelden

    Stündliche Wetter Santiago Tulantepec

    Heute, 22 August, Donnerstag

    Zeit Temperatur Niederschläge Wind Luftdruck Luftfeuchtigkeit
    00:00 +14°C° 0.2 mm 1 m/S 585 mmHg 96%
    01:00 +14°C° 0.2 mm 1 m/S 584 mmHg 95%
    02:00 +14°C° 0.2 mm 1 m/S 584 mmHg 95%
    03:00 +14°C° 0.4 mm 1 m/S 584 mmHg 94%
    04:00 +14°C° 0.4 mm 1 m/S 584 mmHg 93%
    05:00 +14°C° 0.4 mm 1 m/S 584 mmHg 92%
    06:00 +16°C° 0 mm 1 m/S 585 mmHg 85%
    07:00 +17°C° 0 mm 0 m/S 586 mmHg 79%
    08:00 +18°C° 0 mm 0 m/S 587 mmHg 72%
    09:00 +21°C° 0.7 mm 1 m/S 587 mmHg 71%
    10:00 +22°C° 0.7 mm 1 m/S 587 mmHg 70%
    11:00 +22°C° 0.7 mm 1 m/S 587 mmHg 69%
    12:00 +22°C° 2.3 mm 1 m/S 586 mmHg 73%
    13:00 +21°C° 2.3 mm 2 m/S 586 mmHg 77%
    14:00 +20°C° 2.3 mm 2 m/S 585 mmHg 82%
    15:00 +20°C° 1.6 mm 1 m/S 585 mmHg 85%
    16:00 +19°C° 1.6 mm 1 m/S 584 mmHg 89%
    17:00 +18°C° 1.6 mm 1 m/S 584 mmHg 93%
    18:00 +18°C° 0.8 mm 1 m/S 584 mmHg 93%
    19:00 +16°C° 0.8 mm 1 m/S 584 mmHg 93%
    20:00 +16°C° 0.8 mm 1 m/S 585 mmHg 93%
    21:00 +15°C° 0.1 mm 1 m/S 585 mmHg 92%
    22:00 +15°C° 0.1 mm 1 m/S 584 mmHg 91%
    23:00 +15°C° 0.1 mm 1 m/S 584 mmHg 90%

    Morgen, 23 August, Freitag

    Zeit Temperatur Niederschläge Wind Luftdruck Luftfeuchtigkeit
    00:00 +14°C° 0 mm 1 m/S 584 mmHg 90%
    01:00 +14°C° 0 mm 1 m/S 584 mmHg 90%
    02:00 +14°C° 0 mm 1 m/S 584 mmHg 91%
    03:00 +14°C° 0 mm 1 m/S 583 mmHg 91%
    04:00 +14°C° 0 mm 1 m/S 583 mmHg 92%
    05:00 +13°C° 0 mm 1 m/S 583 mmHg 92%
    06:00 +15°C° 0 mm 1 m/S 585 mmHg 86%
    07:00 +18°C° 0 mm 1 m/S 586 mmHg 80%
    08:00 +20°C° 0 mm 1 m/S 587 mmHg 74%
    09:00 +21°C° 0.8 mm 1 m/S 587 mmHg 71%
    10:00 +21°C° 0.8 mm 2 m/S 587 mmHg 67%
    11:00 +23°C° 0.8 mm 2 m/S 587 mmHg 64%
    12:00 +21°C° 2.1 mm 2 m/S 587 mmHg 71%
    13:00 +20°C° 2.1 mm 2 m/S 586 mmHg 79%
    14:00 +19°C° 2.1 mm 2 m/S 585 mmHg 86%
    15:00 +18°C° 2.4 mm 2 m/S 584 mmHg 87%
    16:00 +17°C° 2.4 mm 2 m/S 584 mmHg 89%
    17:00 +17°C° 2.4 mm 2 m/S 583 mmHg 90%
    18:00 +16°C° 0.2 mm 2 m/S 584 mmHg 89%
    19:00 +16°C° 0.2 mm 2 m/S 584 mmHg 88%
    20:00 +15°C° 0.2 mm 2 m/S 585 mmHg 88%
    21:00 +15°C° 0 mm 2 m/S 584 mmHg 88%
    22:00 +15°C° 0 mm 2 m/S 584 mmHg 89%
    23:00 +15°C° 0 mm 2 m/S 584 mmHg 89%

    übermorgen, 24 August, Samstag

    Zeit Temperatur Niederschläge Wind Luftdruck Luftfeuchtigkeit
    00:00 +14°C° 0 mm 1 m/S 584 mmHg 89%
    01:00 +14°C° 0 mm 1 m/S 584 mmHg 89%
    02:00 +14°C° 0 mm 1 m/S 583 mmHg 90%
    03:00 +14°C° 0 mm 1 m/S 584 mmHg 89%
    04:00 +14°C° 0 mm 1 m/S 584 mmHg 89%
    05:00 +14°C° 0 mm 1 m/S 584 mmHg 88%
    06:00 +16°C° 0 mm 1 m/S 585 mmHg 82%
    07:00 +19°C° 0 mm 1 m/S 586 mmHg 76%
    08:00 +21°C° 0 mm 1 m/S 587 mmHg 70%
    09:00 +22°C° 0.1 mm 1 m/S 588 mmHg 65%
    10:00 +24°C° 0.1 mm 1 m/S 588 mmHg 59%
    11:00 +25°C° 0.1 mm 1 m/S 589 mmHg 54%
    12:00 +25°C° 1.7 mm 1 m/S 588 mmHg 60%
    13:00 +24°C° 1.7 mm 2 m/S 587 mmHg 65%
    14:00 +23°C° 1.7 mm 2 m/S 586 mmHg 71%
    15:00 +21°C° 1.8 mm 2 m/S 585 mmHg 76%
    16:00 +21°C° 1.8 mm 1 m/S 585 mmHg 82%
    17:00 +20°C° 1.8 mm 1 m/S 584 mmHg 88%
    18:00 +19°C° 0.7 mm 1 m/S 585 mmHg 88%
    19:00 +19°C° 0.7 mm 1 m/S 585 mmHg 88%
    20:00 +16°C° 0.7 mm 0 m/S 585 mmHg 88%
    21:00 +16°C° 0.2 mm 0 m/S 585 mmHg 88%
    22:00 +16°C° 0.2 mm 1 m/S 585 mmHg 87%
    23:00 +16°C° 0.2 mm 1 m/S 585 mmHg 87%

    25 August, Sonntag

    Zeit Temperatur Niederschläge Wind Luftdruck Luftfeuchtigkeit
    00:00 +15°C° 0 mm 1 m/S 584 mmHg 87%
    01:00 +15°C° 0 mm 1 m/S 584 mmHg 87%
    02:00 +15°C° 0 mm 1 m/S 583 mmHg 87%
    03:00 +14°C° 0 mm 1 m/S 583 mmHg 87%
    04:00 +14°C° 0 mm 1 m/S 583 mmHg 87%
    05:00 +14°C° 0 mm 1 m/S 583 mmHg 87%
    06:00 +16°C° 0 mm 1 m/S 584 mmHg 80%
    07:00 +19°C° 0 mm 1 m/S 586 mmHg 74%
    08:00 +22°C° 0 mm 1 m/S 587 mmHg 67%
    09:00 +23°C° 0.1 mm 1 m/S 587 mmHg 63%
    10:00 +24°C° 0.1 mm 1 m/S 587 mmHg 58%
    11:00 +26°C° 0.1 mm 1 m/S 588 mmHg 54%
    12:00 +25°C° 1.8 mm 2 m/S 587 mmHg 61%
    13:00 +24°C° 1.8 mm 2 m/S 586 mmHg 68%
    14:00 +23°C° 1.8 mm 2 m/S 585 mmHg 75%
    15:00 +21°C° 1.5 mm 2 m/S 584 mmHg 80%
    16:00 +20°C° 1.5 mm 2 m/S 584 mmHg 84%
    17:00 +20°C° 1.5 mm 1 m/S 584 mmHg 88%
    18:00 +19°C° 0.6 mm 1 m/S 584 mmHg 89%
    19:00 +18°C° 0.6 mm 1 m/S 584 mmHg 90%
    20:00 +16°C° 0.6 mm 1 m/S 584 mmHg 91%
    21:00 +16°C° 0.2 mm 1 m/S 584 mmHg 90%
    22:00 +16°C° 0.2 mm 1 m/S 584 mmHg 89%
    23:00 +16°C° 0.2 mm 1 m/S 584 mmHg 88%

    26 August, Montag

    Zeit Temperatur Niederschläge Wind Luftdruck Luftfeuchtigkeit
    00:00 +16°C° 0.3 mm 1 m/S 583 mmHg 88%
    01:00 +15°C° 0.3 mm 1 m/S 583 mmHg 88%
    02:00 +15°C° 0.3 mm 1 m/S 583 mmHg 89%
    03:00 +15°C° 0.3 mm 1 m/S 583 mmHg 88%
    04:00 +15°C° 0.3 mm 1 m/S 583 mmHg 88%
    05:00 +15°C° 0.3 mm 1 m/S 583 mmHg 88%
    06:00 +16°C° 0 mm 1 m/S 584 mmHg 83%
    07:00 +19°C° 0 mm 1 m/S 585 mmHg 77%
    08:00 +19°C° 0 mm 0 m/S 586 mmHg 72%
    09:00 +22°C° 0.8 mm 1 m/S 586 mmHg 69%
    10:00 +23°C° 0.8 mm 1 m/S 586 mmHg 66%
    11:00 +24°C° 0.8 mm 1 m/S 586 mmHg 64%
    12:00 +23°C° 1.7 mm 1 m/S 585 mmHg 69%
    13:00 +23°C° 1.7 mm 2 m/S 584 mmHg 74%
    14:00 +21°C° 1.7 mm 2 m/S 583 mmHg 78%
    15:00 +20°C° 0.8 mm 2 m/S 583 mmHg 82%
    16:00 +20°C° 0.8 mm 2 m/S 583 mmHg 85%
    17:00 +19°C° 0.8 mm 2 m/S 583 mmHg 89%
    18:00 +18°C° 0.7 mm 2 m/S 583 mmHg 90%
    19:00 +18°C° 0.7 mm 1 m/S 583 mmHg 91%
    20:00 +16°C° 0.7 mm 1 m/S 583 mmHg 92%
    21:00 +15°C° 0.2 mm 1 m/S 583 mmHg 91%
    22:00 +15°C° 0.2 mm 1 m/S 583 mmHg 90%
    23:00 +15°C° 0.2 mm 1 m/S 583 mmHg 88%

    27 August, Dienstag

    Zeit Temperatur Niederschläge Wind Luftdruck Luftfeuchtigkeit
    00:00 +14°C° 0.4 mm 1 m/S 583 mmHg 88%
    01:00 +14°C° 0.4 mm 1 m/S 583 mmHg 88%
    02:00 +13°C° 0.4 mm 0 m/S 582 mmHg 88%
    03:00 +13°C° 0.1 mm 0 m/S 583 mmHg 88%
    04:00 +13°C° 0.1 mm 0 m/S 583 mmHg 89%
    05:00 +13°C° 0.1 mm 0 m/S 583 mmHg 89%
    06:00 +15°C° 0 mm 0 m/S 584 mmHg 85%
    07:00 +16°C° 0 mm 0 m/S 585 mmHg 80%
    08:00 +18°C° 0 mm 0 m/S 586 mmHg 76%
    09:00 +21°C° 0.6 mm 1 m/S 586 mmHg 72%
    10:00 +22°C° 0.6 mm 1 m/S 586 mmHg 68%
    11:00 +23°C° 0.6 mm 2 m/S 586 mmHg 64%
    12:00 +23°C° 0.9 mm 2 m/S 586 mmHg 68%
    13:00 +21°C° 0.9 mm 2 m/S 585 mmHg 72%
    14:00 +21°C° 0.9 mm 2 m/S 584 mmHg 76%
    15:00 +20°C° 1 mm 2 m/S 584 mmHg 80%
    16:00 +19°C° 1 mm 2 m/S 584 mmHg 84%
    17:00 +18°C° 1 mm 2 m/S 584 mmHg 88%
    18:00 +17°C° 0.8 mm 2 m/S 584 mmHg 90%
    19:00 +18°C° 0.8 mm 1 m/S 584 mmHg 91%
    20:00 +16°C° 0.8 mm 1 m/S 584 mmHg 93%
    21:00 +16°C° 0.5 mm 1 m/S 584 mmHg 92%
    22:00 +15°C° 0.5 mm 1 m/S 584 mmHg 91%
    23:00 +15°C° 0.5 mm 1 m/S 585 mmHg 89%
    Mehr zeigen